This demonstration page uses our WeatherBlox Daily Observations layout. Learn more.

Left ArrowRight Arrow

39.08367, -84.50855

Hourly Observations for June 27, 2015

Temp ( °F °C ) Dew Point ( °F °C ) Humidity (%) Winds ( mph kmh ) Pressure ( in mb ) Visibility ( mi km ) Precip ( " mm )
12:53 am 00:53 Mostly Cloudy 67 19.4 65 18.3 93 93 VRB 3 6 29.83 1010 10 16 N/A
1:53 am 01:53 Cloudy with Light Rain 67 19.4 66 18.9 97 97 SSW 3 6 29.80 1009 9 14 N/A
2:51 am 02:51 Cloudy with Rain 66 19 66 19 100 100 SSW 5 7 29.80 1009 5 8 0.03 0.76
2:53 am 02:53 Cloudy with Rain 67 19.4 67 19.4 100 100 SSW 3 6 29.77 1008 5 8 0.03 0.76
3:17 am 03:17 Cloudy 66 19 N/A N/A WSW 3 6 29.77 1008 10 16 N/A
3:38 am 03:38 Cloudy 66 19 N/A N/A N N/A 29.77 1008 10 16 N/A
3:53 am 03:53 Cloudy 66 19 N/A N/A N N/A 29.74 1007 10 16 N/A
4:12 am 04:12 Cloudy 68 20 N/A N/A S 3 6 29.74 1007 10 16 N/A
4:53 am 04:53 Cloudy 68 20 68 20 100 100 SSW 6 9 29.73 1007 10 16 N/A
5:36 am 05:36 Cloudy 68 20 68 20 100 100 S 7 11 29.74 1007 10 16 N/A
5:53 am 05:53 Cloudy 69 20.6 68 20 96 96 S 7 11 29.73 1007 10 16 N/A
6:53 am 06:53 Cloudy 69 20.6 68 20 96 96 SSW 8 13 29.73 1007 10 16 N/A
7:53 am 07:53 Mostly Cloudy 70 21.1 67 19.4 90 90 WSW 10 17 29.72 1006 10 16 N/A
8:13 am 08:13 Cloudy 70 21.1 67 19.4 90 90 WSW 10 17 29.74 1007 10 16 N/A
8:50 am 08:50 Cloudy 70 21 64 18 83 83 W 12 19 29.74 1007 10 16 N/A
8:53 am 08:53 Cloudy 69 20.6 64 17.8 84 84 W 14 22 29.73 1007 10 16 N/A
9:53 am 09:53 Cloudy 67 19.4 62 16.7 84 84 WSW 9 15 29.76 1008 10 16 N/A
10:53 am 10:53 Cloudy 65 18.3 59 15 81 81 W 15 24 29.78 1008 10 16 N/A
11:53 am 11:53 Cloudy 67 19.4 58 14.4 73 73 WNW 12 19 29.79 1009 10 16 N/A
12:53 pm 12:53 Cloudy 67 19.4 59 15 76 76 W 10 17 29.80 1009 10 16 N/A
1:53 pm 13:53 Cloudy 67 19.4 59 15 76 76 W 12 19 29.80 1009 10 16 N/A
2:53 pm 14:53 Cloudy 67 19.4 58 14.4 73 73 W 16 26 29.81 1009 10 16 N/A
3:53 pm 15:53 Cloudy 67 19.4 58 14.4 73 73 NW 15 24 29.81 1010 10 16 N/A
4:53 pm 16:53 Cloudy 66 18.9 57 13.9 73 73 NW 9 15 29.82 1010 10 16 N/A
5:13 pm 17:13 Cloudy 65 18.3 56 13.3 73 73 WNW 12 19 29.83 1010 10 16 N/A
5:53 pm 17:53 Cloudy 65 18.3 56 13.3 73 73 W 16 26 29.83 1010 10 16 N/A
6:53 pm 18:53 Cloudy 66 18.9 56 13.3 70 70 NW 9 15 29.84 1011 10 16 N/A
7:53 pm 19:53 Cloudy 65 18.3 55 12.8 70 70 NW 6 9 29.86 1011 10 16 N/A
8:53 pm 20:53 Cloudy with Light Rain 65 18.3 54 12.2 68 68 VRB 5 7 29.87 1012 10 16 N/A
9:53 pm 21:53 Cloudy 65 18.3 55 12.8 70 70 W 8 13 29.87 1011 10 16 N/A
10:53 pm 22:53 Clear 64 17.8 54 12.2 70 70 W 9 15 29.88 1012 10 16 N/A
11:53 pm 23:53 Mostly Cloudy 64 17.8 53 11.7 68 68 W 9 15 29.89 1012 10 16 N/A

Powered by AerisWeather